Location: ??????
(55.6130°N, 37.7882°E)
Time: 12:43:33
(UTC+00:00)

Cosmos 1484 Rocket - Pass Details

Date: 14 April 2024
Orbit: 480 x 525 km, 97.6° (Epoch: 17 May)

Event Time Altitude Azimuth Distance (km) Brightness Sun altitude
Rises 01:26:12 0° 21° (NNE) 2,592 7.2 -8.5°
Reaches altitude 10° 01:28:29 10° 33° (NNE) 1,696 6.5 -8.2°
Maximum altitude 01:31:44 30° 96° (E) 906 4.6 -7.8°
Drops below altitude 10° 01:34:55 10° 159° (SSE) 1,665 5.2 -7.4°
Sets 01:37:08 0° 170° (S) 2,536 6.0 -7.2°
